Location: Bothwell
(42.3833°S, 147.0000°E)
Time: 02:48:17
(UTC+10:00)

XW-2C - Pass Details

Date: 29 April 2024
Orbit: 436 x 449 km, 97.5° (Epoch: 22 May)

Event Time Altitude Azimuth Distance (km) Brightness Sun altitude
Exits shadow 18:25:50 21° 90° (E) 1,092 ? -12.8°
Maximum altitude 18:26:01 22° 85° (E) 1,088 ? -12.9°
Drops below altitude 10° 18:28:46 10° 33° (NNE) 1,616 ? -13.4°
Sets 18:31:07 0° 17° (NNE) 2,479 ? -13.8°
